Lancaster, SC

9:08 AM EST on February 20, 2017 (GMT -0500)
Lancaster County-McWhirter

Weather History for KLKR - October, 2011

Change the Weather History Date:

Tuesday, October 11, 2011

  Actual Average (KUZA) Record (KUZA)
Temperature  
Mean Temperature 62 °F -  
Max Temperature 66 °F 72 °F 87 °F (1960)
Min Temperature 59 °F 51 °F 34 °F (2000)
Degree Days  
Heating Degree Days 2    
Growing Degree Days 12 (Base 50)    
Moisture  
Dew Point 60 °F    
Average Humidity 95    
Maximum Humidity 100    
Minimum Humidity 78    
Precipitation  
Precipitation 0.47 in - - ()
Sea Level Pressure  
Sea Level Pressure 29.99 in    
Wind  
Wind Speed 7 mph (NE)    
Max Wind Speed 14 mph    
Max Gust Speed 22 mph    
Visibility 5 miles    
Events Rain    
Averages and records for this station are not official NWS values.
T = Trace of Precipitation, MM = Missing Value Source: NWS Daily Summary

Daily Weather History Graph

Daily Weather History Graph

Search for Another Location

Airport or City:

Trip Planner

Search our weather history database for the weather conditions in past years. The results will help you decide how hot, cold, wet, or windy it might be!

Date:

Astronomy

Oct. 11, 2011 Rise Set
Actual Time 7:25 AM EDT 6:54 PM EDT
Civil Twilight 7:00 AM EDT 7:19 PM EDT
Nautical Twilight 6:31 AM EDT 7:48 PM EDT
Astronomical Twilight 6:01 AM EDT 8:17 PM EDT
Moon 6:27 PM EDT (10/11) 7:00 AM EDT (10/11)
Length of Visible Light 12h 19m
Length of Day
11h 28m
Full, 100% of the Moon is Illuminated
Oct 11
Full
Oct 11
Full
Oct 19
Last Quarter
Oct 26
New
Nov 2
First Quarter

Hourly Weather History & Observations

Time (EDT) Temp. Dew Point Humidity Pressure Visibility Wind Dir Wind Speed Gust Speed Precip Events Conditions
12:15 AM 66.2 °F 62.6 °F 88% 30.05 in 10.0 mi NE 8.1 mph - N/A   Mostly Cloudy
12:35 AM 66.2 °F 60.8 °F 83% 30.05 in 10.0 mi NE 6.9 mph - N/A   Mostly Cloudy
12:55 AM 66.2 °F 60.8 °F 83% 30.04 in 10.0 mi Calm Calm - N/A   Mostly Cloudy
1:15 AM 64.4 °F 60.8 °F 88% 30.04 in 10.0 mi NE 4.6 mph - N/A   Mostly Cloudy
1:35 AM 66.2 °F 59.0 °F 78% 30.03 in 10.0 mi NE 6.9 mph - N/A   Overcast
1:55 AM 66.2 °F 59.0 °F 78% 30.04 in 10.0 mi Calm Calm - N/A   Overcast
2:15 AM 66.2 °F 59.0 °F 78% 30.03 in 10.0 mi Calm Calm - N/A   Overcast
2:35 AM 64.4 °F 59.0 °F 83% 30.02 in 10.0 mi NE 3.5 mph - N/A   Overcast
3:15 AM 66.2 °F 59.0 °F 78% 30.00 in 10.0 mi NE 6.9 mph - N/A   Overcast
3:35 AM 66.2 °F 59.0 °F 78% 30.00 in 10.0 mi NE 5.8 mph - N/A   Overcast
3:55 AM 66.2 °F 59.0 °F 78% 30.00 in 10.0 mi NE 4.6 mph - N/A   Overcast
4:15 AM 66.2 °F 59.0 °F 78% 30.00 in 10.0 mi NE 6.9 mph - N/A   Mostly Cloudy
4:35 AM 64.4 °F 60.8 °F 88% 30.01 in 8.0 mi ENE 9.2 mph 17.3 mph N/A Rain Light Rain
4:55 AM 62.6 °F 62.6 °F 100% 30.00 in 8.0 mi NE 5.8 mph - 0.01 in Rain Light Rain
5:15 AM 62.6 °F 62.6 °F 100% 30.00 in 10.0 mi ENE 5.8 mph - 0.01 in Rain Light Rain
6:15 AM 60.8 °F 60.8 °F 100% 30.02 in 3.0 mi ENE 3.5 mph - 0.05 in Rain Light Rain
6:55 AM 60.8 °F 60.8 °F 100% 30.03 in 2.5 mi NE 5.8 mph - 0.13 in Rain Light Rain
7:15 AM 60.8 °F 60.8 °F 100% 30.02 in 3.0 mi NNE 8.1 mph - 0.02 in Rain Light Rain
7:35 AM 60.8 °F 60.8 °F 100% 30.02 in 3.0 mi NE 9.2 mph - 0.03 in Rain Light Rain
8:15 AM 59.0 °F 59.0 °F 100% 30.04 in 1.5 mi NE 8.1 mph - 0.07 in Rain Light Rain
8:35 AM 59.0 °F 59.0 °F 100% 30.03 in 1.2 mi NE 8.1 mph - 0.11 in Rain Light Rain
8:55 AM 59.0 °F 59.0 °F 100% 30.03 in 2.5 mi NE 6.9 mph - 0.13 in Rain Light Rain
9:15 AM 59.0 °F 59.0 °F 100% 30.02 in 3.0 mi NE 10.4 mph 20.7 mph N/A Rain Light Rain
9:35 AM 59.0 °F 59.0 °F 100% 30.02 in 3.0 mi ENE 6.9 mph 18.4 mph 0.01 in Rain Light Rain
10:15 AM 59.0 °F 59.0 °F 100% 30.02 in 1.5 mi NE 12.7 mph 21.9 mph 0.04 in Rain Rain
10:35 AM 59.0 °F 59.0 °F 100% 30.02 in 3.0 mi NE 12.7 mph 16.1 mph 0.06 in Rain Light Rain
10:55 AM 59.0 °F 59.0 °F 100% 30.02 in 3.0 mi NNE 12.7 mph 16.1 mph 0.08 in Rain Light Rain
11:15 AM 59.0 °F 59.0 °F 100% 30.01 in 2.0 mi NE 12.7 mph - 0.01 in Rain Light Rain
11:35 AM 60.8 °F 60.8 °F 100% 30.01 in 4.0 mi NNE 11.5 mph 19.6 mph 0.02 in Rain Light Rain
11:55 AM 60.8 °F 60.8 °F 100% 30.01 in 5.0 mi NNE 12.7 mph - 0.02 in Rain Light Rain
12:15 PM 60.8 °F 60.8 °F 100% 30.01 in 10.0 mi ENE 3.5 mph 18.4 mph N/A   Overcast
12:35 PM 60.8 °F 60.8 °F 100% 30.00 in 1.2 mi NE 9.2 mph 18.4 mph N/A Rain Light Rain
12:55 PM 60.8 °F 60.8 °F 100% 30.00 in 1.2 mi NNE 8.1 mph - 0.01 in Rain Light Rain
1:15 PM 60.8 °F 60.8 °F 100% 29.99 in 1.5 mi NE 10.4 mph - 0.01 in Rain Light Rain
1:35 PM 60.8 °F 60.8 °F 100% 29.98 in 3.0 mi NE 12.7 mph 18.4 mph 0.01 in Rain Light Rain
1:55 PM 62.6 °F 62.6 °F 100% 29.97 in 1.8 mi NE 9.2 mph 19.6 mph 0.02 in Rain Light Rain
2:15 PM 62.6 °F 62.6 °F 100% 29.96 in 3.0 mi NE 11.5 mph 20.7 mph N/A   Overcast
2:35 PM 62.6 °F 62.6 °F 100% 29.95 in 2.5 mi NE 12.7 mph 19.6 mph N/A Rain Light Rain
2:55 PM 62.6 °F 62.6 °F 100% 29.95 in 4.0 mi NE 12.7 mph 18.4 mph N/A Rain Light Rain
3:35 PM 60.8 °F 60.8 °F 100% 29.94 in 3.0 mi NE 10.4 mph 17.3 mph N/A   Overcast
4:15 PM 60.8 °F 60.8 °F 100% 29.93 in 4.0 mi NNE 10.4 mph 16.1 mph N/A   Overcast
4:35 PM 60.8 °F 60.8 °F 100% 29.93 in 9.0 mi NNE 13.8 mph 20.7 mph N/A   Overcast
4:55 PM 60.8 °F 60.8 °F 100% 29.92 in 2.5 mi NE 11.5 mph 20.7 mph N/A Rain Light Rain
5:15 PM 60.8 °F 60.8 °F 100% 29.92 in 1.8 mi NE 13.8 mph 20.7 mph 0.01 in Rain Light Rain
5:35 PM 60.8 °F 60.8 °F 100% 29.92 in 2.0 mi NNE 11.5 mph - 0.01 in Rain Light Rain
5:55 PM 59.0 °F 59.0 °F 100% 29.92 in 2.5 mi NNE 11.5 mph - 0.01 in Rain Light Rain
6:15 PM 59.0 °F 59.0 °F 100% 29.91 in 1.8 mi NNE 11.5 mph 16.1 mph N/A   Overcast
6:35 PM 59.0 °F 59.0 °F 100% 29.91 in 1.0 mi NNE 8.1 mph - N/A Rain Light Rain
6:55 PM 59.0 °F 59.0 °F 100% 29.91 in 1.8 mi NNE 8.1 mph 17.3 mph 0.01 in Rain Light Rain
7:15 PM 59.0 °F 59.0 °F 100% 29.91 in 9.0 mi NNE 6.9 mph - N/A   Overcast
7:35 PM 59.0 °F 59.0 °F 100% 29.91 in 3.0 mi NE 5.8 mph - N/A   Overcast
7:55 PM 59.0 °F 59.0 °F 100% 29.91 in 2.5 mi NNE 9.2 mph - N/A Rain Light Rain
8:15 PM 59.0 °F 59.0 °F 100% 29.91 in 7.0 mi NE 6.9 mph - 0.01 in   Overcast
8:55 PM 59.0 °F 59.0 °F 100% 29.91 in 2.5 mi NE 4.6 mph - 0.03 in Rain Light Rain
9:15 PM 59.0 °F 59.0 °F 100% 29.91 in 2.0 mi NE 6.9 mph - N/A Rain Light Rain
9:35 PM 59.0 °F 59.0 °F 100% 29.91 in 3.0 mi NE 4.6 mph - 0.01 in Rain Light Rain
9:55 PM 59.0 °F 59.0 °F 100% 29.91 in 4.0 mi NE 4.6 mph - 0.01 in Rain Light Rain
10:15 PM 59.0 °F 59.0 °F 100% 29.91 in 2.5 mi Calm Calm - N/A Rain Light Rain
10:35 PM 59.0 °F 59.0 °F 100% 29.91 in 2.0 mi NNE 4.6 mph - N/A   Overcast
10:55 PM 60.8 °F 60.8 °F 100% 29.91 in 1.8 mi Calm Calm - 0.01 in Rain Light Rain
11:15 PM 60.8 °F 60.8 °F 100% 29.91 in 3.0 mi Calm Calm - 0.01 in Rain Light Rain
11:35 PM 60.8 °F 60.8 °F 100% 29.91 in 4.0 mi Calm Calm - 0.01 in   Overcast
11:55 PM 60.8 °F 60.8 °F 100% 29.90 in 1.8 mi Calm Calm - 0.01 in   Overcast